[[{"header":{"parameterUnit":"m.s-1","parameterCategory":1,"la1":30.2991,"la2":30.254,"lo1":-89.0895,"lo2":-89.0444,"dy":0.0017,"dx":0.0017,"nx":28,"ny":28,"refTime":"2023-08-15T03:00:00:Z","depth":0,"parameterNumber":2,"parameterNumberName":"U-component_of_WINDS"},"data":[0,0,0,0,0,0,0,0,0,0,0,0,0,0,0,0,0,0,0,0,0,0,0,0,0,0,0,0,0,0,0,0,0,0,0,0,0,0,0,0,0,0,0,0,0,0,0,0,0,0,0,0,0,0,0,0,0,0,1.4088,1.4089,0,1.4176,1.4177,1.4178,1.4175,1.4173,1.4172,1.4171,1.4261,1.4265,1.4268,0,0,0,0,0,0,0,0,0,0,0,0,0,1.3915,1.3918,1.4088,1.4089,1.409,1.4176,1.4177,1.4178,1.4175,1.4173,1.4172,1.417,1.426,1.4264,1.4268,0,0,0,0,0,0,0,0,0,0,0,0,0,1.3996,1.392,1.4088,1.4099,1.4101,1.4176,1.4177,1.4179,1.4175,1.4173,1.4172,1.417,1.4259,1.4264,1.4269,1.4339,0,0,1.4285,1.4288,0,0,0,0,0,0,0,0,1.3991,1.4002,1.4096,1.4098,1.41,1.4162,1.4149,1.4232,1.4176,1.4147,1.4171,1.4169,1.423,1.4237,1.4258,1.4343,1.4347,1.4286,1.4289,1.4291,1.4293,0,0,0,0,0,0,0,1.3985,1.3998,1.4123,1.4097,1.41,1.4099,1.4108,1.4165,1.4198,1.4149,1.4149,1.416,1.4231,1.4253,1.426,1.4348,1.4286,1.429,1.4294,1.4296,1.4494,1.4496,0,0,0,0,0,0,1.3978,1.3993,1.412,1.4125,1.404,1.4103,1.4114,1.4144,1.4197,1.4203,1.4161,1.4159,1.4245,1.4254,1.4263,1.4348,1.4291,1.4296,1.4299,1.4492,1.4495,1.4497,0,0,0,0,0,0,1.3974,1.3989,1.4116,1.4059,1.4076,1.4108,1.4143,1.4147,1.4169,1.4206,1.4212,1.4178,1.4244,1.4256,1.432,1.4351,1.4299,1.4303,1.449,1.4493,1.4496,1.4518,0,0,0,0,0,0,1.3969,1.3988,1.4015,1.406,1.4079,1.4172,1.4145,1.415,1.4179,1.4177,1.4223,1.4229,1.4243,1.4312,1.4325,1.4357,1.4308,1.4487,1.4491,1.4495,1.4514,1.4521,1.4527,0,0,0,0,0,1.3963,1.4018,1.4016,1.4031,1.4113,1.4174,1.4184,1.4199,1.4181,1.4208,1.4232,1.4228,1.4345,1.4319,1.4333,1.4368,1.4485,1.449,1.4494,1.4512,1.452,1.4527,0,0,0,0,0,0,1.3975,1.4024,1.4023,1.4094,1.413,1.4173,1.4208,1.4208,1.4249,1.4246,1.4262,1.4273,1.4337,1.4359,1.4328,1.4437,1.4413,1.4421,1.4421,1.4429,1.4435,1.4429,1.4312,0,0,0,0,0,1.3986,1.4031,1.4071,1.413,1.4148,1.4175,1.4202,1.421,1.4248,1.4263,1.4291,1.4328,1.4373,1.4402,1.4446,1.4518,1.4527,1.4548,1.4555,1.456,1.4566,1.4605,1.4615,1.4512,1.4512,1.4512,0,0,1.4009,1.4041,1.4069,1.4134,1.4162,1.4208,1.4188,1.4238,1.4272,1.4271,1.4333,1.4355,1.4396,1.4464,1.4496,1.4484,1.4597,1.4566,1.4569,1.4573,1.4611,1.462,1.4629,1.4515,1.4515,1.4514,0,0,1.4075,1.4104,1.4156,1.4185,1.4229,1.4246,1.4258,1.4302,1.4316,1.4379,1.4379,1.4419,1.4497,1.4527,1.4552,1.4628,1.4625,1.4642,1.4675,1.4712,1.472,1.4728,1.4754,1.4764,1.4648,1.4648,1.4648,0,1.4098,1.4168,1.4183,1.4233,1.4261,1.4262,1.4314,1.4341,1.4397,1.4416,1.4403,1.4499,1.4528,1.4602,1.4621,1.4641,1.4656,1.4636,1.4718,1.4725,1.4732,1.4758,1.4768,1.465,1.465,1.4649,1.4649,0,1.4194,1.4242,1.4279,1.4332,1.4364,1.4415,1.4437,1.4468,1.4473,1.4492,1.4555,1.4589,1.4639,1.4658,1.4664,1.4733,1.4724,1.4715,1.469,1.4744,1.4768,1.4778,1.4652,1.4652,1.4651,1.4651,0,0,1.427,1.4331,1.4344,1.4368,1.4416,1.4453,1.4503,1.4552,1.4578,1.4616,1.4659,1.4724,1.4715,1.4743,1.4753,1.4786,1.4843,1.4771,1.4773,1.4783,1.4921,1.4927,1.4939,1.4842,1.4843,1.4845,1.4917,0,1.434,1.443,1.4444,1.4523,1.4567,1.4569,1.4613,1.4646,1.4665,1.4705,1.4726,1.4771,1.4756,1.4773,1.4806,1.4829,1.4871,1.4824,1.4881,1.4883,1.487,1.4951,1.4959,1.5025,1.4926,1.4928,1.4929,0,1.4434,1.4474,1.4557,1.4599,1.4618,1.4657,1.4703,1.4741,1.4779,1.479,1.4822,1.4827,1.4879,1.4852,1.4924,1.4892,1.4916,1.4931,1.4934,1.4939,1.4909,1.4959,1.5047,1.5057,1.4944,1.4943,1.4942,0,1.448,1.4555,1.4615,1.4635,1.4685,1.4712,1.4734,1.4771,1.4799,1.4839,1.4857,1.4903,1.4927,1.4962,1.4979,1.4958,1.5049,1.5024,1.506,1.5059,1.5079,1.5077,1.5171,1.5095,1.5095,1.5095,1.5094,0,1.4556,1.4607,1.4636,1.4672,1.4729,1.4745,1.48,1.4822,1.4854,1.4894,1.4898,1.4936,1.4956,1.4996,1.501,1.5067,1.5078,1.5088,1.5091,1.5088,1.5086,1.5104,1.5099,1.5097,1.5097,1.5096,1.5096,0,1.4618,1.4639,1.4704,1.4745,1.4757,1.4797,1.4832,1.4867,1.4886,1.4936,1.4949,1.4978,1.5026,1.5046,1.5105,1.5114,1.5179,1.5179,1.5166,1.5167,1.5201,1.5197,1.5309,1.5324,1.5238,1.5239,1.524,0,1.4665,1.4704,1.475,1.4777,1.4799,1.4843,1.4872,1.4889,1.4919,1.4965,1.4994,1.5042,1.5081,1.5158,1.5184,1.5229,1.5229,1.5265,1.5236,1.5231,1.5229,1.5226,1.523,1.5271,1.5271,1.5272,1.5273,0,1.4746,1.4754,1.4796,1.4841,1.4875,1.4911,1.4947,1.4969,1.4991,1.5024,1.5073,1.5104,1.5164,1.5211,1.5257,1.5279,1.528,1.5282,1.5292,1.5289,1.528,1.5285,1.518,1.5279,1.5278,1.5278,1.5278,1.5277,1.4801,1.4836,1.4873,1.4919,1.4947,1.498,1.5015,1.5037,1.5079,1.5129,1.5136,1.5188,1.5225,1.5287,1.5311,1.5352,1.5343,1.5358,1.5362,1.5365,1.5367,1.5273,1.536,1.536,1.536,1.536,1.536,0,1.4882,1.4906,1.4948,1.4998,1.5033,1.5031,1.5069,1.5099,1.5145,1.5179,1.5218,1.5274,1.5319,1.5349,1.5395,1.5422,1.5423,1.5433,1.5431,1.5436,1.5373,1.5359,1.5431,1.5431,1.5431,1.5431,1.5431,1.5431,1.4928,1.4986,1.4999,1.5071,1.5094,1.5146,1.5168,1.5198,1.5225,1.5287,1.5325,1.5344,1.5376,1.5425,1.5466,1.5474,1.549,1.5501,1.5508,1.5448,1.5441,1.5434,1.5421,1.5505,1.5505,1.5568,1.5568,1.5569]},{"header":{"parameterUnit":"m.s-1","parameterCategory":1,"la1":30.2991,"la2":30.254,"lo1":-89.0895,"lo2":-89.0444,"dy":0.0017,"dx":0.0017,"nx":28,"ny":28,"refTime":"2023-08-15T03:00:00:Z","depth":0,"parameterNumber":3,"parameterNumberName":"V-component_of_WINDS"},"data":[0,0,0,0,0,0,0,0,0,0,0,0,0,0,0,0,0,0,0,0,0,0,0,0,0,0,0,0,0,0,0,0,0,0,0,0,0,0,0,0,0,0,0,0,0,0,0,0,0,0,0,0,0,0,0,0,0,0,4.7031,4.703,0,4.6971,4.697,4.697,4.6854,4.6851,4.6849,4.6847,4.6787,4.6788,4.6788,0,0,0,0,0,0,0,0,0,0,0,0,0,4.7045,4.7046,4.7031,4.703,4.7029,4.6971,4.697,4.697,4.6854,4.6851,4.6849,4.6846,4.6787,4.6788,4.6788,0,0,0,0,0,0,0,0,0,0,0,0,0,4.7018,4.7046,4.7031,4.6965,4.6958,4.6971,4.697,4.6969,4.6855,4.6851,4.6848,4.6845,4.6787,4.6788,4.6788,4.6862,0,0,4.6791,4.6791,0,0,0,0,0,0,0,0,4.7019,4.7017,4.6975,4.6969,4.6962,4.6916,4.6953,4.6933,4.6856,4.6894,4.6847,4.6843,4.6833,4.683,4.6826,4.6859,4.6856,4.6791,4.6791,4.6792,4.6792,0,0,0,0,0,0,0,4.7022,4.7019,4.7007,4.6975,4.6967,4.6938,4.693,4.6949,4.6884,4.689,4.6882,4.6876,4.6829,4.6826,4.6824,4.6856,4.6791,4.6792,4.6792,4.6792,4.6943,4.6946,0,0,0,0,0,0,4.7033,4.7022,4.7009,4.7005,4.6983,4.6941,4.6932,4.6934,4.6883,4.6872,4.6879,4.6871,4.6826,4.6823,4.6821,4.6901,4.6792,4.6793,4.6793,4.6939,4.6944,4.6948,0,0,0,0,0,0,4.7034,4.7033,4.7011,4.7011,4.7006,4.6944,4.6948,4.6935,4.6932,4.6874,4.6862,4.6888,4.6823,4.682,4.6852,4.6898,4.6793,4.6794,4.6935,4.6941,4.6946,4.7064,0,0,0,0,0,0,4.7035,4.7034,4.7061,4.7013,4.7007,4.7043,4.6951,4.6936,4.6933,4.6922,4.688,4.6869,4.682,4.6851,4.6853,4.6897,4.6794,4.6931,4.6938,4.6944,4.7056,4.7073,4.7088,0,0,0,0,0,4.7036,4.7098,4.7063,4.7062,4.7039,4.7046,4.7043,4.6985,4.6938,4.6964,4.6927,4.6871,4.6893,4.6856,4.6856,4.6902,4.6928,4.6936,4.6943,4.7049,4.707,4.7087,0,0,0,0,0,0,4.7154,4.709,4.7051,4.7099,4.7079,4.7027,4.7058,4.7009,4.7002,4.6992,4.6921,4.6912,4.6953,4.693,4.689,4.6969,4.6901,4.691,4.6981,4.7001,4.7016,4.702,4.6795,0,0,0,0,0,4.7186,4.7196,4.714,4.7188,4.718,4.7121,4.7122,4.7079,4.7055,4.7046,4.7012,4.6991,4.6993,4.6996,4.6995,4.7053,4.7041,4.7084,4.71,4.7113,4.7121,4.7148,4.7166,4.6974,4.6973,4.6973,0,0,4.7251,4.7217,4.7229,4.7211,4.719,4.7202,4.7115,4.7132,4.714,4.7049,4.7076,4.705,4.7022,4.7067,4.7085,4.7049,4.7171,4.7124,4.7135,4.7135,4.7158,4.7176,4.7192,4.6979,4.6978,4.6977,0,0,4.7376,4.7353,4.7389,4.7369,4.7339,4.7299,4.7308,4.7263,4.7242,4.7268,4.7199,4.7209,4.7214,4.7196,4.7188,4.7306,4.7253,4.7308,4.739,4.7417,4.7432,4.7445,4.7485,4.75,4.7316,4.7317,4.7317,0,4.7461,4.7476,4.7414,4.7435,4.7428,4.7346,4.7382,4.7366,4.7338,4.7335,4.7296,4.73,4.7276,4.7314,4.7343,4.734,4.7346,4.7312,4.7435,4.7447,4.7459,4.7496,4.7511,4.7323,4.7323,4.7322,4.7321,0,4.7582,4.7594,4.7627,4.7599,4.7597,4.7626,4.7567,4.7572,4.753,4.7495,4.7521,4.7489,4.7479,4.7486,4.7445,4.7518,4.7496,4.7448,4.7378,4.7485,4.7518,4.7532,4.7333,4.733,4.7328,4.7327,0,0,4.7778,4.7716,4.7729,4.7714,4.7675,4.7682,4.7707,4.7697,4.7702,4.7685,4.7703,4.7709,4.7663,4.7654,4.7611,4.7635,4.7727,4.7582,4.758,4.7608,4.7803,4.7838,4.7856,4.7693,4.7695,4.7697,4.7804,0,4.7892,4.793,4.7874,4.7924,4.7933,4.7856,4.7877,4.7855,4.7822,4.7826,4.779,4.7795,4.7735,4.7728,4.7749,4.7712,4.7765,4.7704,4.7707,4.7708,4.7714,4.7874,4.7912,4.8014,4.7817,4.782,4.7821,0,4.803,4.8019,4.807,4.8025,4.8027,4.8047,4.8032,4.8037,4.801,4.7985,4.7974,4.7922,4.7943,4.7877,4.7903,4.7863,4.7861,4.7843,4.7846,4.7842,4.777,4.7872,4.8046,4.8061,4.7842,4.784,4.7839,0,4.8166,4.8163,4.8193,4.8184,4.8133,4.8149,4.8129,4.8098,4.8095,4.8083,4.8079,4.807,4.8065,4.8058,4.8005,4.7963,4.8037,4.7967,4.8015,4.8017,4.8033,4.8032,4.8207,4.8036,4.8036,4.8036,4.8035,0,4.8297,4.8331,4.8252,4.8271,4.8306,4.8242,4.8278,4.825,4.8224,4.8234,4.8168,4.8179,4.8109,4.8113,4.8072,4.8098,4.8097,4.8076,4.8064,4.8081,4.8083,4.8077,4.8068,4.804,4.8039,4.8038,4.8037,0,4.8454,4.8403,4.8429,4.8379,4.8367,4.8395,4.8352,4.8366,4.833,4.8345,4.8344,4.8287,4.8288,4.8235,4.8225,4.8197,4.8241,4.8218,4.825,4.8242,4.8292,4.8287,4.8466,4.8486,4.8306,4.8308,4.8309,0,4.854,4.8564,4.8516,4.8518,4.8501,4.8506,4.8502,4.844,4.8439,4.8409,4.8427,4.8423,4.8415,4.8421,4.8378,4.837,4.8344,4.8408,4.8342,4.8358,4.8342,4.834,4.8342,4.8421,4.8423,4.8425,4.8426,0,4.8698,4.8671,4.8668,4.8657,4.8654,4.8642,4.8625,4.8631,4.8563,4.8565,4.8565,4.8559,4.8549,4.8545,4.8529,4.8507,4.8455,4.8448,4.8458,4.8474,4.8491,4.848,4.8285,4.8443,4.8442,4.844,4.8439,4.8439,4.882,4.8837,4.8806,4.8804,4.8785,4.8771,4.8781,4.8746,4.8745,4.8731,4.8695,4.8701,4.8672,4.8644,4.8628,4.8631,4.8599,4.8614,4.8618,4.8622,4.8631,4.8492,4.8628,4.8627,4.8627,4.8626,4.8626,0,4.8972,4.8948,4.8948,4.8926,4.8925,4.8877,4.8856,4.8858,4.8864,4.8841,4.8835,4.8834,4.883,4.8787,4.8777,4.8788,4.8763,4.8787,4.8784,4.878,4.8661,4.8652,4.8806,4.8806,4.8806,4.8806,4.8806,4.8806,4.9051,4.9077,4.9047,4.9062,4.9037,4.9042,4.9034,4.902,4.9001,4.9003,4.8999,4.8971,4.894,4.8927,4.892,4.8908,4.8906,4.8937,4.8917,4.8806,4.8788,4.8772,4.8763,4.8938,4.8938,4.9035,4.9036,4.9037]}]]